Location: Plateau_FTFHS
(35.6000°N, 81.3500°W)
Time: 23:25:38
(UTC-04:00)

Daily predictions for brighter satellites

Satellite Brightness Start Highest point End
(mag) Time Altitude Azimuth Time Altitude Azimuth Time Altitude Azimuth
Meteor 2-5 Rocket 4.3 19:57:14 10° NNW 20:02:59 68° W 20:08:48 10° S
Meteor 1-4 Rocket 3.4 20:04:01 10° SSE 20:07:00 27° E 20:10:00 10° NNE
Helios 1B rocket 4.1 20:07:38 10° ENE 20:09:46 14° E 20:11:53 10° SE
In-Cosmos 22 4.2 20:06:56 10° N 20:12:05 51° ENE 20:17:12 10° SSE
Spot 2 Rocket 4.3 20:08:19 10° SE 20:12:49 33° ENE 20:17:21 10° N
Lacrosse 4 Rocket 4.4 20:10:55 10° W 20:13:00 14° NW 20:15:06 10° NNW
Cosmos 1378 3.8 20:10:19 10° NNW 20:14:01 61° W 20:17:42 10° S
Lacrosse 5 rocket 3.4 20:13:57 10° N 20:15:42 13° NNE 20:17:26 10° ENE
Cosmos 2344 4.3 20:11:55 10° SW 20:19:29 60° NW 20:27:47 10° NNE
Cosmos 1544 3.1 20:16:10 10° S 20:19:43 55° E 20:23:19 10° NNE
Cosmos 1867 3.5 20:15:39 10° SSW 20:21:04 77° ESE 20:26:33 10° NNE
Cosmos 1076 Rocket 4.2 20:17:38 10° NNE 20:21:26 31° ENE 20:25:12 10° SE
Cosmos 1934 Rocket 4.2 20:15:34 10° S 20:21:41 77° W 20:27:46 10° N
H-2A R/B (2) 2.6 20:19:41 10° WSW 20:22:13 30° S 20:26:57 10° ESE
FENGYUN 3A 3.7 20:17:36 10° SSE 20:22:57 66° ENE 20:28:18 10° N
CZ-2D R/B 4.3 20:19:49 10° SE 20:23:04 26° ENE 20:26:20 10° NNE
Okean 3 Rocket 3.6 20:21:23 10° N 20:25:44 59° E 20:30:07 10° SSE
Cosmos 1805 3.2 20:22:15 10° S 20:26:07 69° E 20:29:59 10° NNE
ALOS 2.2 20:24:17 10° SSE 20:28:56 80° ENE 20:33:37 10° N
Helios 1A 4.3 20:26:17 12° ESE 20:29:03 21° ENE 20:32:11 10° NNE
Cosmos 1833 Rocket 3.4 20:24:52 10° N 20:30:00 35° ENE 20:34:47 11° SE
Envisat 4.5 20:28:31 12° ESE 20:31:12 18° ENE 20:34:35 10° NNE
Abrixas 2.5 20:31:10 10° NW 20:33:58 58° NE 20:35:43 20° ESE
Cosmos 2278 Rocket 3.7 20:31:42 10° SW 20:37:01 41° WNW 20:42:22 10° N
RESURS DK-1 3.9 20:33:39 10° NW 20:37:28 37° WSW 20:41:17 10° S
Tiangong 1 2.9 20:35:30 10° W 20:37:53 23° SW 20:40:15 10° SSE
ATLAS 5 CENTAUR R/B 1.6 20:34:55 10° SSW 20:39:30 75° ESE 20:44:28 10° NE
Cosmos 1125 Rocket 3.6 20:35:51 10° SSW 20:41:02 82° WNW 20:46:17 10° NNE
SeaSat 1 2.4 20:36:39 10° SE 20:41:32 70° ENE 20:46:27 10° NNW
Cosmos 1733 3.8 20:39:08 10° SSE 20:42:38 34° E 20:46:09 10° NNE
Cosmos 1470 3.2 20:40:32 10° SSE 20:44:13 38° E 20:47:55 10° NNE
GPS 2-05 Rocket1 2.8 20:42:39 10° W 20:46:12 86° S 20:48:14 24° E
Geosat 4.1 20:41:56 10° NE 20:46:51 53° ESE 20:51:43 10° S
Cosmos-2242 3.2 20:42:50 10° SSE 20:46:52 45° E 20:50:57 10° NNE
Cosmos 1048 Rocket 4.0 20:41:51 10° N 20:46:54 57° ENE 20:51:40 11° SSE
Cosmos 1766 Rocket 3.8 20:43:52 10° N 20:48:12 47° E 20:52:21 11° SSE
OAO 2 Rocket 4.1 20:43:56 10° SW 20:48:38 36° SSE 20:51:18 22° ESE
GP-B 3.3 20:46:09 10° SSE 20:50:23 47° E 20:54:38 10° N
HJ-1C 4.4 20:49:31 10° S 20:52:48 49° W 20:56:08 10° NNW
Cosmos 2297 4.2 20:49:32 10° SSW 20:55:12 66° WNW 21:00:55 10° NNE
USA 186 2.6 20:58:06 22° NNE 20:58:06 22° NNE 20:59:08 10° N
H-2A R/B 3.0 20:53:52 10° S 20:57:44 71° W 21:01:40 10° NNW
BREEZE-M DEB (TANK) 4.5 20:55:19 10° W 20:58:04 35° NNW 21:04:36 10° NE
Resurs 01 Rocket 1.8 20:55:28 10° S 20:59:52 74° WSW 21:04:18 10° NNW
CZ-4B DEB 4.0 21:01:09 24° NE 21:01:09 24° NE 21:03:06 10° NNE
Cosmos 1340 Rocket 3.3 20:57:54 10° N 21:01:39 38° ENE 21:02:27 34° ESE
ISS -2.1 21:07:12 10° W 21:10:08 31° NW 21:12:44 12° NNE
Cosmos 2082 Rocket 2.1 21:04:39 10° NNW 21:10:22 88° ENE 21:14:42 18° SSE
Cosmos 2100 Rocket 3.9 21:06:55 10° S 21:13:13 79° E 21:19:36 10° N
Meteor 1-29 2.8 21:11:53 10° NNE 21:15:22 70° ESE 21:16:41 35° S
SAR-Lupe-4 3.4 21:16:30 41° SSE 21:17:39 89° ENE 21:21:15 10° NNW
Cosmos 1743 Rocket 3.8 21:15:03 10° N 21:19:21 47° E 21:19:41 46° E
Meteor 1-16 Rocket 4.4 21:13:50 10° SSE 21:19:26 50° E 21:25:07 10° NNE
Cosmos 1500 Rocket 4.5 21:16:23 10° NNE 21:19:25 30° NE 21:19:25 30° NE
Cosmos 1271 Rocket 3.3 21:19:32 10° SSW 21:23:30 59° W 21:27:29 10° N
COSMOS 2487 3.5 21:21:44 10° NNW 21:25:10 45° WSW 21:26:44 26° SSW
Aurora 2 Rocket 4.2 21:21:20 10° WSW 21:27:37 30° S 21:28:56 28° SSE
Cosmos 2251 Rocket 4.0 21:23:28 10° N 21:28:30 40° ENE 21:28:42 40° ENE
H-2A R/B 4.2 21:23:06 10° WSW 21:29:06 63° S 22:45:31 10° ESE
H-2A R/B 4.2 21:23:06 10° WSW 21:29:07 63° S 22:45:31 10° ESE
Cosmos 1674 3.8 21:30:23 10° NNW 21:33:59 42° W 21:36:15 20° SSW
USA 215 3.1 21:30:23 10° NE 21:36:54 70° SE 21:43:24 10° SW
Cosmos 1802 Rocket 3.9 21:30:54 10° S 21:37:02 85° W 21:43:14 10° N
Cosmos 1939 Rocket 3.1 21:42:56 65° N 21:42:56 65° N 21:46:33 10° N
Cosmos 2151 4.5 21:39:57 10° N 21:42:00 25° NNE 21:42:00 25° NNE
Helios 1B rocket 3.8 21:41:23 10° N 21:45:12 38° WNW 21:49:00 10° SW
SJ-11-01 4.2 21:48:14 71° SSW 21:48:43 82° WSW 21:53:28 10° NNW
Cosmos 1842 Rocket 3.7 21:50:28 70° WSW 21:50:40 72° W 21:55:04 10° N
Lacrosse 5 rocket 2.4 21:51:37 10° NW 21:54:09 39° NW 21:54:09 39° NW
Cosmos 2369 Rocket 4.1 22:01:47 17° NNE 22:01:47 17° NNE 22:03:01 10° NNE
Cosmos 494 Rocket 4.0 21:54:28 10° NNW 21:59:02 69° N 21:59:02 69° N
Gblst 52 Del rocket 4.4 22:00:16 10° WSW 22:06:15 66° NW 22:07:38 49° NNE
Envisat 3.8 22:08:43 40° SW 22:09:49 46° W 22:14:42 10° NNW
Cosmos 1833 Rocket 4.4 22:09:04 10° NW 22:13:43 27° WSW 22:16:33 18° SW
ERS-1 Rocket 3.8 22:23:16 48° NW 22:23:16 48° NW 22:27:00 10° NNW
H-2A R/B 4.1 22:31:01 18° NNE 22:31:01 18° NNE 22:32:32 10° N
CZ-3 Stage 3 3.4 22:18:27 10° W 22:38:06 54° SSW 22:38:06 54° SSW
